TELSTAR 12 (ORION 2)

Last updated on Dec. 17, 2020, 6:14 a.m. UTC

1 25949U 99059A   20350.42465234 -.00000011  00000-0  00000+0 0  9993
2 25949   3.7326  82.3355 0024896 262.5510 142.8989  0.99921397 77372
UTC
Height (km)
Latitude
Longitude
Inclination
Orbital Period
UTC large
Height (km)
Speed (km/s)
/
Latitude / Longitude
Inclination (degrees)
Orbital Period (minutes)
Azimuth
Elevation
Range (km)
Doppler Factor
iOS Compass Heading
iOS Angle

Next 30 passes for location: Hong Kong

Rise time Rise Azimuth (degrees) Set time Set Azimuth (degrees) Duration Max altitude (degrees)

No matching passes for this satellites